Temperature
14 15 15 16 16 17 19 21 22 22 22 21 21 22 21 21 21 18 17 17 17 17 17 17 17 16 16 17 17 17 17 17 17 17 17 17 17 17 17 17 17 17 16 16 16 16 16 16 16
14 14 15 17 16 18 20 21 21 21 20 20 20 21 21 20 19 18 16 16 16 17 17 17 16 16 16 16 16 17 17 17 17 17 17 17 17 17 17 17 17 16 16 16 16 16 16 16 16
14 14 16 17 17 19 20 21 20 19 19 20 20 20 20 19 17 16 16 16 16 16 16 16 16 16 16 16 16 16 16 17 17 17 17 17 17 17 17 17 16 16 16 16 16 16 16 16 16
14 15 16 16 18 20 20 19 19 19 19 19 20 19 18 17 16 16 16 16 16 16 16 16 16 16 16 16 16 16 16 16 16 16 16 16 16 16 16 16 16 16 16 16 16 16 16 16 16
14 15 16 16 18 19 19 19 19 19 19 19 19 19 17 16 16 16 15 16 16 16 16 16 16 16 16 16 16 16 16 16 16 16 16 16 16 16 16 16 16 16 16 16 16 16 16 16 16
14 16 16 16 18 19 18 18 19 19 19 19 18 18 16 16 15 15 15 15 15 16 16 16 16 16 16 16 16 16 16 16 16 16 16 16 16 16 16 16 16 16 16 16 15 16 16 16 16
14 15 16 18 18 18 18 17 18 18 18 18 17 17 16 15 15 15 15 15 15 15 15 15 15 15 15 16 16 16 16 16 16 16 16 16 16 16 16 16 16 16 15 15 15 15 15 15 15
14 15 16 17 17 17 17 17 17 17 17 16 16 16 16 14 14 14 14 14 14 15 15 15 15 15 15 15 15 16 16 16 16 16 16 16 16 16 15 15 15 15 15 15 15 15 15 15 15
13 13 15 16 17 16 16 16 16 16 16 16 15 15 14 14 14 14 14 14 14 14 14 14 15 15 15 15 15 15 15 16 16 16 16 15 15 15 15 15 15 15 15 15 15 15 15 15 15
13 13 14 15 15 15 15 15 15 15 15 15 15 14 14 13 13 13 13 13 13 14 14 14 14 14 14 15 15 15 15 15 15 15 15 15 15 15 15 15 15 15 15 15 15 15 15 15 15
13 13 14 14 14 14 14 14 15 15 14 14 14 13 13 13 13 13 13 13 13 13 13 13 14 14 14 14 14 14 15 15 15 15 15 15 15 15 15 15 15 15 15 15 15 15 15 15 15
13 13 14 13 12 13 13 13 14 13 13 13 13 13 12 12 12 12 12 12 12 12 13 13 13 14 14 14 14 14 14 14 14 15 15 15 15 15 15 15 15 15 14 14 14 14 15 14 14
12 12 12 12 12 12 12 13 13 13 13 12 12 12 12 12 11 11 11 11 12 12 12 12 13 13 13 13 14 14 14 14 14 14 14 14 14 14 14 14 14 14 14 14 14 14 14 14 14
12 12 12 12 12 12 12 12 12 12 12 12 12 12 11 11 11 11 11 11 11 11 11 12 12 12 13 13 13 13 13 14 14 14 14 14 14 14 14 14 14 14 14 14 14 14 14 14 14
11 11 12 12 12 12 11 11 12 12 12 12 12 11 11 11 10 10 10 10 10 10 11 11 11 12 12 12 12 13 13 13 13 13 14 14 14 14 14 14 14 14 14 14 14 14 14 14 14
11 11 11 12 12 12 11 11 12 12 12 12 11 11 11 10 10 10 9 9 9 10 10 10 11 11 11 12 12 12 12 12 13 13 13 13 13 13 14 14 14 14 14 14 14 14 14 14 13
10 11 11 11 12 12 11 11 12 12 12 11 11 11 10 10 9 9 9 9 9 9 9 9 10 10 10 11 11 11 12 12 12 12 12 13 13 13 13 13 13 13 13 13 13 13 13 13 13
10 11 12 11 12 11 11 11 12 12 11 11 11 10 10 9 9 8 8 8 8 8 9 9 9 9 10 10 10 11 11 11 11 12 12 12 12 12 13 13 13 13 13 13 13 13 13 13 13
11 11 11 11 12 11 10 11 11 12 11 11 10 10 9 9 8 8 7 7 8 8 8 8 9 9 9 9 10 10 10 11 11 11 11 11 12 12 12 12 12 12 12 12 13 13 13 13 13
10 10 10 11 11 11 10 11 11 12 11 10 10 9 8 8 7 7 7 7 7 7 7 8 8 8 8 9 9 9 9 10 10 10 10 11 11 11 11 12 12 12 12 12 12 12 12 12 12
10 10 10 10 10 11 10 10 11 11 11 10 9 9 8 7 7 6 6 6 6 6 6 7 7 7 8 8 8 8 9 9 9 10 10 10 10 11 11 11 11 11 11 11 12 12 12 12 12
9 10 10 9 9 9 10 8 10 11 10 10 9 8 7 7 6 6 6 6 6 6 6 6 6 7 7 7 8 8 8 8 8 9 9 9 10 10 10 10 10 11 11 11 11 11 11 11 11
9 10 9 9 9 8 9 8 9 11 10 9 9 8 7 6 6 5 5 5 5 5 5 6 6 6 6 7 7 7 7 7 8 8 8 8 9 9 9 10 10 10 10 10 10 10 10 11 11
9 9 9 9 8 8 9 9 8 10 10 9 9 8 7 6 6 5 5 5 5 5 5 5 5 5 6 6 6 6 7 7 7 7 7 8 8 8 9 9 9 9 9 9 10 10 10 10 10
9 8 8 8 7 8 10 9 8 10 10 9 8 7 7 6 5 5 5 5 5 5 5 5 5 5 5 5 5 6 6 6 6 6 6 7 7 8 8 8 8 8 8 9 9 9 9 9 9
9 9 8 8 9 9 10 9 9 10 9 9 8 7 7 6 5 5 5 5 4 4 4 4 4 5 5 5 5 5 5 5 6 6 6 6 6 7 7 7 7 8 8 8 8 8 8 8 9
9 9 9 8 8 8 9 10 9 9 9 8 8 7 7 6 5 5 5 4 4 4 4 4 4 4 4 4 4 4 4 5 5 5 5 5 6 6 6 6 6 7 7 7 7 7 7 7 8
9 9 8 8 8 8 10 10 9 8 8 8 8 7 7 6 5 5 4 4 4 4 4 4 4 4 4 4 4 4 4 4 4 4 4 4 5 5 5 5 5 6 6 6 6 6 6 6 6
8 8 8 8 8 8 8 9 10 9 9 8 8 8 7 6 6 5 4 4 4 4 4 4 3 3 3 3 3 3 3 3 3 3 4 4 4 4 4 4 5 5 5 5 5 5 5 5 6
9 9 9 8 8 8 7 8 10 10 9 9 8 8 7 6 6 5 4 4 4 4 3 3 3 3 3 3 3 3 3 3 3 3 3 3 3 3 3 3 3 4 4 4 4 4 4 5 5
Wind_Speed
10 12 7 3 3 5 7 4 3 5 4 6 6 4 5 6 5 6 4 8 7 4 7 9 8 7 7 7 8 8 9 10 10 10 10 9 9 8 8 8 8 8 9 10 10 9 10 10 10
11 7 5 4 4 6 5 4 4 7 7 5 3 2 2 4 7 6 5 7 7 5 6 7 7 6 7 7 8 8 9 9 9 9 9 9 9 8 8 8 8 9 9 10 10 10 10 11 10
10 7 4 4 5 4 1 4 7 9 6 2 1 1 3 4 6 5 6 8 6 5 6 7 8 6 5 6 7 7 8 9 9 10 10 10 9 9 8 8 8 9 9 10 10 11 11 11 10
5 4 4 5 8 2 4 7 7 6 4 1 1 2 3 6 5 6 8 8 7 5 6 6 6 5 4 5 6 7 7 8 9 10 10 10 10 10 9 9 9 9 10 10 11 12 11 11 10
4 4 5 7 7 1 7 7 4 2 4 2 1 1 3 5 8 8 8 8 7 6 6 4 4 3 3 4 5 6 7 8 9 10 10 10 11 10 10 10 10 10 11 11 12 12 11 11 10
3 4 5 8 6 3 6 4 1 1 2 3 1 2 3 7 8 7 7 7 7 6 5 3 1 2 3 4 5 6 8 8 9 10 10 10 11 11 11 11 12 12 12 12 12 12 12 11 11
4 4 6 5 5 4 4 3 1 2 1 3 3 2 3 7 7 6 7 7 6 6 5 4 2 2 3 5 7 7 8 9 9 10 10 11 11 12 12 13 13 13 13 13 13 13 13 12 11
4 4 5 4 4 3 5 3 2 4 3 3 4 2 2 5 6 6 5 6 6 5 5 5 5 4 3 4 6 8 9 10 11 11 11 11 12 13 14 14 15 15 15 14 14 14 14 13 12
5 4 3 1 0 4 5 2 2 3 3 1 2 3 5 5 6 6 5 5 5 6 5 5 4 4 5 6 5 7 9 10 11 11 12 11 11 12 13 14 16 17 17 16 15 15 15 14 13
3 3 0 4 5 4 4 2 2 1 2 1 2 4 6 6 6 6 6 6 6 6 6 5 6 5 5 6 5 4 6 8 10 9 10 10 11 11 11 14 17 18 18 17 16 16 16 14 11
2 1 2 5 8 5 3 2 2 2 1 3 5 6 6 6 6 6 6 6 6 5 5 5 5 5 5 4 4 3 4 4 7 9 10 10 9 8 7 7 10 14 15 13 14 14 13 12 11
2 2 2 3 4 3 3 3 3 3 3 6 7 7 6 7 6 6 7 7 6 6 6 5 5 5 5 5 4 4 3 2 3 5 7 6 4 4 4 4 7 8 10 9 10 9 12 13 14
3 2 2 2 1 1 2 3 3 3 3 5 5 6 6 6 6 6 6 6 6 6 7 6 5 5 5 4 4 4 3 3 4 5 6 6 3 4 4 5 6 8 9 8 7 8 9 9 10
3 3 2 2 2 1 2 4 2 2 2 4 4 4 4 5 6 6 7 7 7 7 7 6 6 5 5 5 4 4 4 5 5 4 5 7 5 4 5 5 6 6 8 9 8 9 8 8 7
3 4 4 4 3 1 2 4 3 1 3 3 4 4 4 4 5 6 7 7 8 8 7 7 7 5 5 6 6 5 5 5 4 4 6 7 6 5 5 5 6 6 8 9 7 8 7 7 7
4 4 4 4 3 2 2 3 2 2 1 3 3 4 4 4 5 5 6 6 7 8 9 8 9 7 6 5 5 5 5 5 4 4 4 6 6 5 4 5 5 6 6 5 6 6 6 6 6
4 4 3 4 5 2 3 3 1 1 1 2 3 3 4 5 6 7 7 7 7 7 8 8 8 8 7 6 5 5 4 4 4 4 3 4 5 5 3 4 4 5 4 5 6 5 5 6 6
3 2 2 3 4 2 4 4 3 1 1 2 3 4 4 5 7 8 8 8 7 7 7 8 8 8 8 6 5 4 3 4 3 3 3 4 4 4 3 3 3 3 4 5 5 6 6 5 6
1 0 1 1 2 1 5 6 4 2 1 1 2 4 5 6 6 7 8 8 8 8 8 8 8 8 7 5 5 4 3 3 3 3 4 4 3 4 2 2 3 3 4 5 6 5 6 6 4
1 1 0 1 1 2 5 7 5 4 3 2 2 3 5 6 7 8 8 8 8 9 9 9 9 9 8 6 5 4 4 3 3 3 3 3 3 3 3 2 3 3 4 5 5 5 5 4 5
0 0 1 2 4 5 5 6 5 5 5 3 2 2 4 5 7 8 8 8 8 8 9 9 9 9 8 8 6 5 4 3 3 4 4 4 4 3 2 2 2 3 3 4 5 6 7 6 6
0 3 1 2 3 3 3 3 4 7 5 3 2 2 3 5 6 7 8 8 8 7 7 8 9 9 8 7 6 5 4 3 3 3 3 4 4 4 4 3 2 2 2 3 5 5 5 6 6
1 2 2 3 4 4 5 4 4 4 4 2 2 2 2 3 5 6 7 7 7 8 7 8 8 9 9 8 8 6 4 3 3 3 4 4 3 3 4 3 3 2 2 3 4 4 5 5 6
2 3 4 4 2 4 5 5 4 3 3 2 2 2 3 3 4 5 5 6 7 7 7 7 8 9 9 9 8 7 6 5 5 5 4 4 3 3 4 3 2 2 2 3 3 4 4 4 5
2 2 1 2 3 4 4 3 4 3 5 3 2 2 2 3 3 4 5 6 7 8 8 8 8 9 9 9 8 8 6 5 5 5 4 4 3 3 4 4 3 3 3 3 3 3 3 4 5
2 2 2 2 2 1 2 4 3 6 6 4 3 2 1 1 2 3 4 5 5 6 7 7 8 8 9 8 7 7 7 5 4 5 4 4 3 4 4 4 4 3 3 4 3 3 4 4 4
1 1 1 2 4 3 4 4 4 5 5 3 3 2 1 1 1 2 2 3 4 5 5 6 7 7 8 9 8 7 7 6 6 6 5 4 5 5 5 5 5 5 5 4 4 4 4 4 4
2 3 2 2 3 3 4 4 3 6 5 4 3 2 2 1 0 1 1 2 3 3 4 5 6 6 7 8 8 7 7 7 6 5 6 6 6 6 6 6 6 6 5 5 4 4 4 4 5
4 3 3 3 3 2 4 3 1 5 5 4 3 3 3 3 2 0 0 1 1 2 3 5 6 6 6 7 6 7 7 7 7 6 7 6 6 7 7 7 6 6 6 6 5 5 5 5 5
2 4 3 3 4 3 3 4 2 4 4 3 3 3 3 3 2 1 0 1 2 2 3 4 4 5 5 6 6 6 6 7 7 7 7 7 7 6 6 6 6 6 6 6 6 6 6 6 6
Wind_Direction
277 253 241 234 230 230 232 226 119 84 68 42 28 358 350 14 27 80 82 20 10 39 96 125 141 155 161 162 160 160 166 170 171 172 172 171 170 168 165 164 165 161 153 147 141 136 130 124 119
275 238 230 230 236 230 222 192 115 86 64 49 27 326 325 54 51 76 49 5 2 34 86 117 132 150 163 168 168 169 176 178 179 180 180 179 180 178 178 178 176 167 158 153 144 138 132 128 125
268 241 226 224 231 241 107 95 99 83 76 74 83 353 15 36 42 42 17 357 3 34 64 108 128 144 163 175 178 182 186 189 191 189 189 189 189 188 188 188 183 173 165 159 150 144 140 136 134
238 225 243 240 233 221 73 63 73 102 116 158 133 97 73 54 46 23 7 5 6 27 51 102 124 141 162 178 188 194 199 203 203 202 200 198 199 198 196 190 184 176 172 165 158 151 150 147 146
246 231 222 227 232 178 73 63 42 122 146 149 336 62 78 67 57 26 9 8 8 16 32 82 119 141 169 186 196 204 210 214 212 212 210 208 208 207 203 195 187 178 175 171 164 161 159 157 159
236 241 226 218 200 148 96 76 340 275 114 100 2 322 88 78 56 26 11 7 8 9 13 23 130 173 193 202 205 212 217 220 220 219 218 218 216 213 208 201 192 184 182 179 173 170 169 167 168
244 241 245 229 180 157 108 73 350 334 59 65 15 339 111 71 53 26 9 4 5 3 2 2 333 256 229 221 213 216 221 223 224 224 221 220 219 217 212 204 197 190 188 186 180 178 177 175 175
281 279 252 245 196 135 100 94 18 344 4 39 12 331 53 32 16 12 4 359 355 355 357 356 345 335 304 251 229 225 227 229 228 227 226 224 224 221 216 209 201 196 193 190 186 184 184 181 181
272 256 238 258 149 102 94 89 47 353 310 357 66 18 17 13 7 1 355 353 354 354 354 348 344 340 323 300 252 229 230 230 229 229 229 225 224 222 217 212 204 198 196 193 192 189 188 184 186
252 242 289 21 26 73 82 53 22 318 286 354 32 11 9 359 353 345 340 340 343 343 345 349 346 342 334 315 298 252 238 224 222 226 219 216 223 223 218 210 203 200 198 196 196 194 190 184 187
231 228 102 43 35 39 49 17 347 298 313 5 355 347 350 343 341 340 336 333 332 332 335 340 336 331 326 319 307 291 275 246 224 227 223 214 219 220 216 197 195 198 197 196 197 193 193 194 195
175 96 96 68 44 22 1 349 334 331 345 357 357 348 339 336 338 338 336 332 329 330 327 329 327 321 316 311 303 291 279 265 245 237 236 221 209 201 198 188 190 192 194 192 191 193 199 205 207
162 118 104 92 76 342 309 295 298 299 333 345 339 334 335 339 340 337 334 328 324 323 324 322 314 310 306 301 295 292 284 275 260 242 237 233 212 207 204 194 194 196 196 194 192 198 203 207 210
122 139 146 155 163 205 274 278 264 276 331 318 318 326 337 340 341 339 341 334 330 328 324 319 315 309 305 295 288 284 283 278 276 260 246 239 220 207 205 205 201 200 201 199 199 202 207 209 207
141 164 177 168 184 153 298 261 203 242 311 310 327 336 345 353 354 348 343 335 333 329 324 322 315 308 300 295 292 292 287 279 269 260 256 253 242 223 209 207 207 207 207 205 204 208 212 212 209
188 192 183 158 177 155 242 257 119 95 309 314 327 344 354 356 354 354 350 345 340 334 331 329 326 320 308 297 292 292 296 296 285 275 264 260 256 247 221 215 212 208 206 203 207 212 209 212 211
198 210 158 150 168 183 231 262 263 111 285 306 324 350 355 356 1 2 356 351 346 339 333 330 329 324 314 299 287 283 291 294 298 297 283 268 258 252 229 216 221 212 203 208 211 213 207 212 216
187 192 152 165 155 205 240 254 259 219 269 309 343 357 2 5 7 4 358 352 348 343 337 332 330 328 321 311 300 287 282 282 291 298 303 289 280 268 245 218 225 218 213 211 207 212 212 216 214
8 50 171 138 120 226 244 256 259 235 222 327 6 4 1 6 8 9 2 359 357 353 348 342 340 335 333 326 315 302 293 286 285 284 302 303 304 293 270 249 233 219 220 221 214 211 213 218 206
334 267 268 108 104 274 260 266 250 212 171 100 33 7 3 2 360 0 359 3 2 357 353 350 346 342 340 331 318 296 289 293 296 305 312 325 331 323 298 258 245 234 226 228 226 217 215 216 195
55 304 11 341 321 255 257 267 210 161 140 125 81 37 19 4 358 359 0 1 360 358 353 349 345 343 341 336 331 326 314 312 317 321 320 326 333 327 317 296 266 254 233 228 226 221 217 219 210
48 49 360 308 302 270 242 275 222 174 164 141 99 60 28 12 2 0 -0 358 357 355 353 350 350 349 347 345 345 342 331 314 310 320 323 325 337 340 351 345 322 295 263 247 243 236 231 219 217
359 343 288 277 279 286 233 234 257 178 189 163 115 83 48 21 8 5 3 356 358 359 359 353 353 358 355 354 352 345 335 324 322 329 327 321 325 339 352 348 336 325 302 285 263 248 243 233 226
299 273 244 237 260 260 218 210 251 197 182 155 109 75 50 25 16 9 2 359 1 2 1 358 360 0 357 356 355 353 347 336 336 336 326 320 326 329 337 339 330 321 310 304 292 264 251 249 243
248 285 258 207 220 239 168 200 239 156 117 122 115 64 39 25 19 3 358 358 359 360 360 359 2 1 1 2 0 357 352 347 341 335 327 330 330 330 328 328 327 321 307 301 297 288 281 265 260
250 297 334 289 281 310 191 226 215 127 114 114 122 128 73 38 26 3 360 359 356 358 359 358 359 0 2 3 1 360 360 355 352 349 343 343 340 333 334 334 324 314 311 304 288 280 276 272 267
274 247 2 299 289 265 234 201 149 131 142 161 170 168 185 36 30 3 9 7 359 357 357 356 358 1 4 6 6 3 1 1 360 357 358 356 351 344 348 344 339 333 323 309 296 281 282 280 268
285 321 293 253 289 287 268 233 202 178 194 195 199 202 205 204 136 22 7 5 6 358 355 359 1 3 2 5 8 6 2 2 1 1 3 358 354 351 349 353 351 346 339 329 316 305 295 290 282
184 212 235 261 272 278 290 283 86 156 171 191 204 197 200 205 184 186 343 11 18 10 9 7 3 4 2 0 1 1 0 359 1 4 3 360 357 355 354 352 352 351 347 346 340 324 317 300 295
223 228 225 251 264 245 262 267 120 123 143 178 202 199 194 190 171 170 159 23 22 15 9 8 360 359 356 354 355 356 356 360 2 1 359 357 355 354 354 352 352 349 349 349 343 335 332 323 311
Height
1499 1502 1505 1508 1511 1510 1504 1492 1487 1491 1494 1498 1500 1501 1502 1505 1508 1518 1518 1515 1515 1514 1514 1513 1514 1516 1517 1519 1520 1522 1524 1525 1526 1528 1529 1530 1531 1532 1533 1534 1534 1535 1535 1536 1536 1537 1537 1538 1538
1498 1503 1507 1508 1509 1509 1499 1490 1490 1494 1498 1501 1503 1503 1504 1507 1510 1514 1514 1515 1514 1514 1514 1514 1515 1516 1517 1519 1520 1522 1523 1525 1526 1527 1529 1530 1531 1532 1533 1533 1534 1535 1536 1536 1537 1538 1538 1539 1539
1499 1503 1506 1504 1503 1500 1495 1490 1492 1496 1500 1503 1504 1505 1507 1510 1512 1514 1515 1515 1515 1514 1514 1514 1515 1516 1517 1519 1520 1521 1523 1524 1526 1527 1528 1530 1530 1531 1532 1533 1534 1535 1536 1536 1537 1538 1539 1539 1540
1501 1504 1505 1503 1498 1493 1492 1493 1494 1498 1502 1504 1505 1507 1509 1513 1513 1514 1514 1514 1514 1514 1514 1514 1515 1516 1517 1518 1519 1521 1522 1523 1525 1526 1527 1529 1530 1531 1532 1533 1534 1535 1536 1536 1537 1538 1539 1540 1540
1501 1503 1503 1501 1495 1492 1493 1496 1498 1500 1502 1505 1506 1508 1511 1513 1513 1513 1514 1514 1514 1514 1514 1514 1515 1515 1516 1517 1518 1520 1521 1522 1523 1525 1526 1527 1528 1530 1531 1532 1533 1534 1535 1536 1537 1538 1539 1540 1540
1502 1499 1501 1499 1494 1493 1495 1499 1501 1501 1503 1505 1507 1508 1512 1513 1513 1513 1513 1513 1513 1513 1513 1514 1514 1515 1515 1516 1517 1518 1519 1521 1522 1523 1524 1526 1527 1528 1529 1531 1532 1533 1534 1535 1536 1537 1538 1539 1540
1501 1499 1496 1491 1493 1495 1498 1501 1503 1503 1504 1507 1508 1509 1512 1512 1512 1513 1513 1513 1512 1512 1513 1513 1513 1514 1514 1515 1516 1517 1518 1519 1520 1521 1522 1524 1525 1526 1528 1529 1530 1531 1532 1533 1535 1536 1537 1538 1539
1498 1498 1494 1491 1493 1496 1499 1502 1505 1506 1507 1508 1510 1510 1512 1512 1512 1512 1512 1512 1511 1511 1511 1511 1512 1512 1513 1513 1514 1515 1516 1517 1518 1519 1520 1521 1523 1524 1525 1527 1528 1530 1531 1532 1533 1534 1536 1537 1538
1499 1501 1497 1494 1495 1499 1501 1503 1506 1507 1508 1509 1511 1512 1513 1512 1511 1511 1511 1510 1510 1510 1510 1510 1510 1511 1511 1512 1512 1513 1513 1514 1515 1516 1517 1519 1520 1521 1523 1524 1526 1527 1529 1530 1531 1532 1534 1535 1536
1498 1500 1498 1497 1497 1499 1502 1505 1507 1508 1508 1509 1510 1511 1511 1511 1511 1510 1509 1509 1508 1508 1508 1508 1508 1508 1509 1509 1510 1510 1511 1512 1512 1513 1514 1516 1517 1518 1520 1521 1523 1525 1526 1527 1529 1530 1531 1533 1534
1498 1499 1500 1501 1502 1503 1505 1507 1508 1508 1509 1510 1511 1511 1511 1510 1510 1509 1508 1508 1507 1506 1506 1506 1506 1506 1506 1506 1507 1508 1508 1509 1510 1511 1512 1513 1514 1515 1517 1518 1520 1521 1523 1524 1526 1527 1528 1530 1531
1498 1500 1501 1504 1505 1506 1507 1508 1509 1509 1511 1511 1510 1510 1510 1509 1509 1508 1507 1506 1505 1505 1504 1503 1503 1503 1503 1504 1504 1504 1505 1506 1507 1507 1509 1510 1511 1512 1513 1515 1516 1518 1519 1521 1522 1524 1525 1527 1528
1499 1501 1504 1506 1507 1508 1509 1509 1510 1510 1510 1510 1510 1510 1509 1509 1508 1507 1506 1505 1504 1503 1502 1501 1500 1500 1500 1500 1501 1501 1502 1503 1503 1504 1505 1506 1507 1508 1509 1511 1512 1514 1515 1517 1518 1520 1522 1523 1525
1500 1503 1504 1506 1508 1509 1509 1509 1510 1509 1509 1509 1509 1509 1508 1508 1507 1505 1504 1503 1502 1500 1499 1498 1498 1497 1497 1497 1497 1497 1498 1499 1500 1500 1501 1502 1503 1504 1505 1506 1508 1509 1511 1513 1514 1516 1518 1519 1522
1502 1504 1505 1506 1507 1508 1510 1508 1507 1507 1508 1508 1508 1508 1507 1506 1505 1504 1503 1501 1500 1498 1497 1495 1495 1494 1494 1493 1493 1494 1494 1495 1495 1496 1497 1498 1499 1500 1501 1502 1503 1505 1507 1508 1510 1512 1514 1515 1517
1502 1503 1505 1505 1506 1508 1512 1510 1505 1506 1507 1507 1507 1507 1506 1505 1504 1503 1501 1499 1497 1495 1494 1492 1491 1490 1490 1490 1489 1489 1490 1490 1491 1492 1492 1493 1494 1496 1496 1497 1498 1500 1502 1504 1505 1507 1509 1510 1512
1503 1503 1502 1505 1505 1506 1509 1508 1505 1505 1505 1506 1506 1505 1505 1504 1503 1501 1499 1497 1495 1493 1491 1489 1488 1486 1486 1485 1485 1485 1485 1486 1486 1487 1488 1489 1490 1491 1491 1492 1494 1495 1497 1498 1500 1502 1504 1505 1507
1502 1499 1501 1503 1503 1505 1507 1506 1504 1503 1504 1504 1505 1504 1504 1503 1501 1499 1497 1495 1492 1490 1488 1486 1484 1483 1482 1481 1481 1481 1481 1481 1482 1482 1483 1484 1485 1486 1487 1488 1489 1490 1492 1493 1495 1497 1499 1501 1502
1499 1500 1503 1503 1503 1505 1505 1503 1502 1501 1502 1503 1503 1503 1503 1502 1500 1498 1495 1493 1490 1487 1485 1483 1481 1480 1479 1478 1477 1476 1476 1476 1477 1477 1478 1479 1480 1481 1482 1482 1484 1485 1486 1488 1489 1492 1493 1495 1498
1502 1503 1504 1503 1502 1504 1503 1501 1498 1498 1500 1501 1502 1502 1502 1500 1499 1497 1494 1491 1488 1485 1483 1481 1479 1477 1476 1475 1474 1473 1473 1472 1473 1473 1474 1475 1476 1476 1477 1478 1479 1480 1481 1482 1484 1485 1487 1489 1492
1505 1506 1507 1507 1505 1502 1504 1501 1495 1495 1498 1500 1501 1501 1501 1500 1498 1496 1493 1490 1487 1484 1481 1479 1477 1475 1473 1472 1471 1470 1470 1469 1469 1469 1470 1471 1472 1472 1473 1474 1475 1475 1476 1477 1478 1480 1481 1483 1485
1507 1506 1507 1507 1509 1508 1504 1510 1496 1493 1496 1498 1500 1500 1500 1499 1497 1495 1492 1489 1486 1483 1481 1478 1475 1473 1471 1470 1469 1467 1466 1465 1465 1466 1466 1467 1468 1468 1469 1469 1470 1471 1471 1472 1473 1474 1475 1477 1478
1509 1507 1508 1508 1509 1510 1504 1508 1500 1492 1495 1497 1498 1499 1499 1498 1496 1494 1492 1489 1486 1483 1480 1477 1474 1472 1470 1468 1467 1465 1464 1463 1463 1463 1463 1463 1464 1465 1465 1465 1466 1466 1467 1467 1468 1469 1470 1471 1472
1509 1509 1508 1508 1510 1513 1501 1505 1501 1493 1492 1494 1496 1497 1497 1496 1495 1493 1491 1488 1485 1482 1479 1476 1473 1471 1469 1467 1465 1464 1462 1461 1461 1460 1460 1460 1461 1461 1461 1461 1462 1462 1462 1463 1463 1464 1465 1465 1466
1510 1512 1513 1513 1514 1507 1493 1499 1499 1489 1489 1492 1494 1495 1495 1495 1493 1492 1489 1487 1484 1481 1478 1476 1473 1470 1468 1466 1464 1463 1461 1460 1459 1458 1457 1457 1457 1457 1457 1458 1458 1458 1458 1458 1459 1459 1459 1460 1461
1509 1510 1515 1514 1508 1501 1496 1498 1492 1487 1489 1491 1493 1493 1494 1493 1492 1490 1488 1486 1483 1481 1478 1475 1472 1470 1468 1465 1463 1462 1460 1459 1457 1457 1456 1455 1454 1454 1454 1454 1454 1454 1454 1454 1453 1454 1454 1454 1454
1508 1509 1509 1513 1507 1506 1496 1488 1488 1487 1488 1490 1491 1492 1492 1492 1490 1489 1487 1485 1483 1480 1478 1475 1472 1470 1467 1465 1463 1461 1459 1458 1456 1455 1454 1453 1452 1452 1451 1451 1450 1450 1449 1449 1449 1448 1448 1449 1449
1510 1509 1511 1512 1510 1505 1493 1486 1488 1487 1487 1488 1489 1489 1490 1490 1489 1487 1486 1484 1482 1479 1477 1475 1472 1470 1467 1465 1463 1461 1459 1457 1455 1454 1452 1451 1450 1449 1448 1448 1447 1446 1445 1445 1444 1444 1444 1444 1444
1510 1510 1509 1509 1509 1510 1504 1494 1481 1482 1483 1485 1486 1487 1487 1487 1486 1486 1484 1483 1481 1479 1477 1475 1472 1470 1467 1465 1463 1460 1458 1456 1454 1453 1451 1449 1448 1447 1445 1444 1443 1442 1442 1441 1440 1439 1439 1438 1438
1503 1503 1505 1510 1507 1502 1505 1498 1480 1480 1481 1483 1484 1485 1485 1485 1484 1484 1483 1481 1480 1478 1476 1474 1472 1469 1467 1465 1462 1460 1458 1456 1453 1451 1450 1448 1446 1445 1443 1442 1441 1439 1438 1437 1436 1435 1434 1433 1432